FW8254 Weather Reports


time (UTC)temp
C
wind
direction
speed
KPH
gust
KPH
rain 1hr
cm
rain 24hr
cm
rain mn
cm
humidity
%
barometer
mb
20260831120522 22 350 0.0 0.0 0.00 0.00 0.00 97 1014.5
20260831120018 22 350 0.0 0.0 0.00 0.00 0.00 97 1014.4
20260831115514 22 350 0.0 0.0 0.00 0.00 0.00 97 1014.4
20260831115009 22 351 0.0 0.0 0.00 0.00 0.00 97 1014.3
20260831114507 22 347 0.0 0.0 0.00 0.00 0.00 97 1014.4
20260831114003 22 351 0.0 0.0 0.00 0.00 0.00 97 1014.4
20260831113501 22 350 0.0 0.0 0.00 0.00 0.00 97 1014.3
20260831112957 22 350 0.0 0.0 0.00 0.00 0.00 97 1014.4
20260831112452 22 351 0.0 0.0 0.00 0.00 0.00 97 1014.1
20260831111947 22 348 0.0 0.0 0.00 0.00 0.00 96 1014.2
20260831111443 22 348 0.0 0.0 0.00 0.00 0.00 96 1014.3
20260831110938 22 351 0.0 0.0 0.00 0.00 0.00 96 1014.1
20260831110433 22 351 0.0 0.0 0.00 0.00 0.00 96 1014.3
20260831105932 22 351 0.0 0.0 0.00 0.00 0.00 96 1014.3
20260831105428 22 351 0.0 0.0 0.00 0.00 0.00 96 1014.1
20260831104923 22 351 0.0 0.0 0.00 0.00 0.00 96 1014.2
20260831104419 22 353 0.0 0.0 0.00 0.00 0.00 96 1014.0
20260831103914 22 347 0.0 0.0 0.00 0.00 0.00 96 1014.1
20260831103414 22 350 0.0 0.0 0.00 0.00 0.00 96 1014.0
20260831102909 22 351 0.0 0.0 0.00 0.00 0.00 96 1013.9
20260831102404 22 351 0.0 0.0 0.00 0.00 0.00 96 1014.1
20260831101859 22 350 0.0 0.0 0.00 0.00 0.00 96 1014.1
20260831101354 22 350 0.0 0.0 0.00 0.00 0.00 96 1014.1
20260831100851 22 350 0.0 0.0 0.00 0.00 0.00 96 1014.2
20260831100347 22 351 0.0 0.0 0.00 0.00 0.00 96 1014.1
20260831095846 22 351 0.0 0.0 0.00 0.00 0.00 96 1014.0
20260831095345 22 351 0.0 0.0 0.00 0.00 0.00 96 1014.1
20260831094841 22 350 0.0 0.0 0.00 0.00 0.00 96 1013.8
20260831094336 22 350 0.0 0.0 0.00 0.00 0.00 96 1014.0
20260831093832 22 350 0.0 0.0 0.00 0.00 0.00 96 1014.1
20260831093327 22 351 0.0 0.0 0.00 0.00 0.00 96 1013.8
20260831092824 22 350 0.0 0.0 0.00 0.00 0.00 96 1014.0
20260831092319 22 350 0.0 0.0 0.00 0.00 0.00 95 1014.2
20260831091814 22 351 0.0 0.0 0.00 0.00 0.00 95 1014.0
20260831091310 22 351 0.0 0.0 0.00 0.00 0.00 95 1014.0
20260831090805 22 351 0.0 0.0 0.00 0.00 0.00 95 1013.6
20260831090301 22 351 0.0 0.0 0.00 0.00 0.00 95 1014.1
20260831085757 22 351 0.0 0.0 0.00 0.00 0.00 95 1013.8
20260831085251 22 352 0.0 0.0 0.00 0.00 0.00 95 1014.0
20260831084746 23 353 0.0 0.0 0.00 0.00 0.00 95 1013.8
20260831084243 23 352 0.0 0.0 0.00 0.00 0.00 95 1013.9
20260831083738 23 352 0.0 0.0 0.00 0.00 0.00 95 1013.8
20260831083234 23 353 0.0 0.0 0.00 0.00 0.00 95 1013.7
20260831082732 23 352 0.0 0.0 0.00 0.00 0.00 94 1013.8
20260831082228 23 353 0.0 0.0 0.00 0.00 0.00 94 1013.5
20260831081723 23 351 0.0 0.0 0.00 0.00 0.00 94 1013.6
20260831081219 23 351 0.0 0.0 0.00 0.00 0.00 94 1013.5
20260831080714 22 351 0.0 0.0 0.00 0.00 0.00 94 1013.5
20260831080208 22 351 0.0 0.0 0.00 0.00 0.00 94 1013.5
20260831075704 22 351 0.0 0.0 0.00 0.00 0.00 94 1013.6
20260831075200 22 352 0.0 0.0 0.00 0.00 0.00 94 1013.5
20260831074659 22 352 0.0 0.0 0.00 0.00 0.00 93 1013.4
20260831074153 23 353 0.0 0.0 0.00 0.00 0.00 93 1013.1
20260831073648 23 353 0.0 0.0 0.00 0.00 0.00 93 1013.4
20260831073148 23 353 0.0 0.0 0.00 0.00 0.00 93 1013.4
20260831072643 23 353 0.0 0.0 0.00 0.00 0.00 93 1013.2
20260831072140 23 355 0.0 0.0 0.00 0.00 0.00 93 1013.5
20260831071638 23 352 0.0 0.0 0.00 0.00 0.00 93 1013.4
20260831071133 23 352 0.0 0.0 0.00 0.00 0.00 93 1013.5
20260831070633 23 352 0.0 0.0 0.00 0.00 0.00 93 1013.4
20260831070128 23 352 0.0 0.0 0.00 0.00 0.00 92 1013.6
20260831065626 23 351 0.0 0.0 0.00 0.00 0.00 92 1013.7
20260831065125 23 351 0.0 0.0 0.00 0.00 0.00 92 1013.6
20260831064620 23 351 0.0 0.0 0.00 0.00 0.00 92 1013.8
20260831064116 23 351 0.0 0.0 0.00 0.00 0.00 92 1013.6
20260831063612 23 351 0.0 0.0 0.00 0.00 0.00 92 1013.7
20260831063107 23 352 0.0 0.0 0.00 0.00 0.00 92 1013.8
20260831062606 23 352 0.0 0.0 0.00 0.00 0.00 92 1013.8
20260831062101 23 353 0.0 0.0 0.00 0.00 0.00 92 1013.8
20260831061559 23 354 0.0 0.0 0.00 0.00 0.00 91 1014.0
20260831061055 23 351 0.0 0.0 0.00 0.00 0.00 91 1013.8
20260831060550 23 351 0.0 0.0 0.00 0.00 0.00 91 1013.9
20260831060045 23 352 0.0 0.0 0.00 0.00 0.00 91 1013.7
20260831055539 23 353 0.0 0.0 0.00 0.00 0.00 91 1013.8
20260831055035 23 353 0.0 0.0 0.00 0.00 0.00 91 1013.8
20260831054535 23 351 0.0 0.0 0.00 0.00 0.00 91 1013.9
20260831054034 23 351 0.0 0.0 0.00 0.00 0.00 91 1013.9
20260831053532 23 351 0.0 0.0 0.00 0.00 0.00 91 1013.7
20260831053028 23 351 0.0 0.0 0.00 0.00 0.00 91 1013.9
20260831052526 23 352 0.0 0.0 0.00 0.00 0.00 91 1014.0
20260831052026 23 352 0.0 0.0 0.00 0.00 0.00 90 1013.9
20260831051524 23 352 0.0 0.0 0.00 0.00 0.00 90 1014.2
20260831051024 23 352 0.0 0.0 0.00 0.00 0.00 90 1014.1
20260831050524 23 352 0.0 0.0 0.00 0.00 0.00 90 1014.2
20260831050022 23 352 0.0 0.0 0.00 0.00 0.00 90 1014.1
20260831045522 23 352 0.0 0.0 0.00 0.00 0.00 90 1013.8
20260831045017 23 352 0.0 0.0 0.00 0.00 0.00 90 1014.1
20260831044512 23 353 0.0 0.0 0.00 0.00 0.00 90 1014.1
20260831044008 23 352 0.0 0.0 0.00 0.00 0.00 90 1014.1
20260831043507 24 352 0.0 0.0 0.00 0.00 0.00 90 1014.2
20260831043002 24 352 0.0 0.0 0.00 0.00 0.00 90 1014.3
20260831042457 24 352 0.0 0.0 0.00 0.00 0.00 90 1014.2
20260831041956 24 352 0.0 0.0 0.00 0.00 0.00 90 1014.2
20260831041451 24 351 0.0 0.0 0.00 0.00 0.00 89 1014.4
20260831040946 24 353 0.0 1.6 0.00 0.00 0.00 89 1014.2
20260831040441 24 351 0.0 0.0 0.00 0.00 0.00 89 1014.1
20260831035938 25 353 0.0 0.0 0.00 0.00 0.00 89 1014.3
20260831035438 25 353 0.0 0.0 0.00 0.00 0.00 89 1014.4
20260831034932 25 347 0.0 0.0 0.00 0.00 0.00 89 1014.3
20260831034428 25 347 0.0 0.0 0.00 0.00 0.00 89 1014.2
20260831033923 25 347 0.0 0.0 0.00 0.00 0.00 89 1014.1
20260831033419 25 347 0.0 0.0 0.00 0.00 0.00 88 1014.3
20260831032914 25 347 0.0 0.0 0.00 0.00 0.00 88 1014.2
20260831032408 25 347 0.0 0.0 0.00 0.00 0.00 88 1014.1
20260831031903 25 347 0.0 0.0 0.00 0.00 0.00 88 1014.2
20260831031402 25 347 0.0 1.6 0.00 0.00 0.00 88 1014.1
20260831030857 25 347 0.0 0.0 0.00 0.00 0.00 88 1014.1
20260831030356 25 352 0.0 1.6 0.00 0.00 0.00 87 1014.4
20260831025855 25 347 0.0 0.0 0.00 0.00 0.00 87 1014.3
20260831025355 25 340 0.0 0.0 0.00 0.00 0.00 87 1014.2
20260831024850 25 341 0.0 0.0 0.00 0.00 0.00 87 1014.3
20260831024350 25 340 0.0 0.0 0.00 0.00 0.00 86 1014.5
20260831023849 25 340 0.0 0.0 0.00 0.00 0.00 86 1014.0
20260831023347 25 340 0.0 0.0 0.00 0.00 0.00 86 1013.9
20260831022842 25 340 0.0 0.0 0.00 0.00 0.00 85 1014.0
20260831022342 25 340 0.0 0.0 0.00 0.00 0.00 85 1013.9
20260831021836 26 340 0.0 0.0 0.00 0.00 0.00 84 1014.1
20260831021331 26 340 0.0 0.0 0.00 0.00 0.00 84 1014.1
20260831020827 26 340 0.0 0.0 0.00 0.00 0.00 83 1014.1
20260831020326 26 339 0.0 0.0 0.00 0.00 0.00 83 1014.1
20260831015822 26 339 0.0 0.0 0.00 0.00 0.00 81 1014.3
20260831015317 26 339 0.0 0.0 0.00 0.00 0.00 81 1014.1
20260831014812 26 339 0.0 0.0 0.00 0.00 0.00 81 1014.0
20260831014307 26 339 0.0 0.0 0.00 0.00 0.00 81 1014.0
20260831013803 26 339 0.0 0.0 0.00 0.00 0.00 81 1014.0
20260831013302 26 339 0.0 0.0 0.00 0.00 0.00 82 1014.1
20260831012757 26 339 0.0 0.0 0.00 0.00 0.00 82 1013.8
20260831012253 26 338 0.0 0.0 0.00 0.00 0.00 82 1014.0
20260831011751 26 345 0.0 0.0 0.00 0.00 0.00 81 1013.9
20260831011247 26 343 0.0 0.0 0.00 0.00 0.00 81 1013.8
20260831010742 26 345 0.0 0.0 0.00 0.00 0.00 81 1013.8
20260831010237 26 344 0.0 0.0 0.00 0.00 0.00 81 1013.5
20260831005733 26 344 0.0 0.0 0.00 0.00 0.00 81 1013.6
20260831005228 26 346 0.0 1.6 0.00 0.00 0.00 82 1013.7
20260831004723 26 344 1.6 1.6 0.00 0.00 0.00 83 1013.5
20260831004220 26 342 0.0 0.0 0.00 0.00 0.00 82 1013.5
20260831003715 27 342 0.0 0.0 0.00 0.00 0.00 82 1013.6
20260831003211 27 342 0.0 0.0 0.00 0.00 0.00 82 1013.5
20260831002709 27 342 0.0 0.0 0.00 0.00 0.00 81 1013.5
20260831002204 27 342 0.0 0.0 0.00 0.00 0.00 81 1013.4
20260831001701 27 342 0.0 0.0 0.00 0.00 0.00 80 1013.5
20260831001200 27 341 0.0 0.0 0.00 0.00 0.00 80 1013.0
20260831000657 27 341 0.0 0.0 0.00 0.00 0.00 79 1013.1
20260831000152 27 344 0.0 0.0 0.00 0.00 0.00 78 1013.1
20260830235650 28 51 0.0 0.0 0.00 0.00 0.00 77 1013.2
20260830235146 28 51 0.0 0.0 0.00 0.00 0.00 77 1013.1
20260830234641 28 51 0.0 0.0 0.00 0.00 0.00 76 1013.2
20260830234137 28 51 0.0 0.0 0.00 0.00 0.00 75 1013.2
20260830233632 28 52 0.0 0.0 0.00 0.00 0.00 73 1013.1
20260830233128 29 52 0.0 0.0 0.00 0.00 0.00 72 1013.1
20260830232623 29 52 0.0 0.0 0.00 0.00 0.00 71 1013.3
20260830232119 29 52 0.0 1.6 0.00 0.00 0.00 70 1013.1
20260830231615 29 52 0.0 0.0 0.00 0.00 0.00 70 1013.1
20260830231114 29 52 0.0 1.6 0.00 0.00 0.00 70 1013.2
20260830230610 29 52 0.0 1.6 0.00 0.00 0.00 70 1013.1
20260830230104 30 52 0.0 1.6 0.00 0.00 0.00 69 1013.3
20260830225559 30 52 0.0 0.0 0.00 0.00 0.00 68 1013.0
20260830225054 30 52 0.0 1.6 0.00 0.00 0.00 68 1012.9
20260830224552 30 52 0.0 1.6 0.00 0.00 0.00 68 1013.0
20260830224049 30 52 0.0 1.6 0.00 0.00 0.00 69 1013.1
20260830223545 30 52 1.6 1.6 0.00 0.00 0.00 69 1012.9
20260830223039 30 47 0.0 1.6 0.00 0.00 0.00 68 1013.0
20260830222534 30 47 0.0 1.6 0.00 0.00 0.00 67 1012.9
20260830222030 30 47 0.0 1.6 0.00 0.00 0.00 66 1013.1
20260830221526 30 47 0.0 1.6 0.00 0.00 0.00 65 1012.9
20260830221022 30 57 3.2 3.2 0.00 0.00 0.00 65 1013.0
20260830220521 30 43 0.0 1.6 0.00 0.00 0.00 67 1012.9
20260830220020 30 43 0.0 3.2 0.00 0.00 0.00 66 1013.1
20260830215514 30 47 1.6 1.6 0.00 0.00 0.00 66 1013.1
20260830215009 30 50 1.6 4.8 0.00 0.00 0.00 65 1012.9
20260830214504 30 46 0.0 3.2 0.00 0.00 0.00 65 1012.9
20260830213958 30 46 1.6 1.6 0.00 0.00 0.00 64 1012.8
20260830213453 30 44 0.0 3.2 0.00 0.00 0.00 66 1012.8
20260830212948 30 49 0.0 1.6 0.00 0.00 0.00 66 1012.9
20260830212444 30 43 1.6 3.2 0.00 0.00 0.00 65 1013.1
20260830211943 30 44 0.0 1.6 0.00 0.00 0.00 65 1013.1
20260830211438 30 48 0.0 1.6 0.00 0.00 0.00 64 1012.9
20260830210934 30 50 1.6 1.6 0.00 0.00 0.00 63 1012.9
20260830210434 30 59 1.6 3.2 0.00 0.00 0.00 63 1013.2
20260830205931 30 46 1.6 1.6 0.00 0.00 0.00 62 1013.2
20260830205430 30 49 0.0 3.2 0.00 0.00 0.00 61 1013.4
20260830204926 30 44 0.0 3.2 0.00 0.00 0.00 65 1013.4
20260830204425 30 43 1.6 4.8 0.00 0.00 0.00 63 1013.4
20260830203920 30 37 0.0 1.6 0.00 0.00 0.00 65 1013.4
20260830203416 30 45 3.2 8.0 0.00 0.00 0.00 66 1013.4
20260830202915 30 44 0.0 3.2 0.00 0.00 0.00 64 1013.3
20260830202411 31 63 3.2 3.2 0.00 0.00 0.00 65 1013.6
20260830201907 31 72 3.2 4.8 0.00 0.00 0.00 65 1013.7
20260830201400 31 45 0.0 1.6 0.00 0.00 0.00 64 1013.7
20260830200856 32 44 0.0 1.6 0.00 0.00 0.00 63 1013.7
20260830200355 31 44 0.0 1.6 0.00 0.00 0.00 64 1013.7
20260830195845 32 40 0.0 1.6 0.00 0.00 0.00 63 1013.7
20260830195344 31 35 0.0 0.0 0.00 0.00 0.00 63 1014.0
20260830194843 31 56 3.2 3.2 0.00 0.00 0.00 62 1013.7
20260830194336 31 40 1.6 3.2 0.00 0.00 0.00 62 1013.8
20260830193831 31 32 0.0 1.6 0.00 0.00 0.00 65 1014.0
20260830193325 30 38 0.0 3.2 0.00 0.00 0.00 70 1014.2
20260830192822 29 43 1.6 1.6 0.00 0.00 0.00 70 1014.3
20260830192321 30 52 1.6 3.2 0.00 0.00 0.00 70 1014.5
20260830191817 30 45 0.0 1.6 0.00 0.00 0.00 69 1014.2
20260830191316 30 33 0.0 1.6 0.00 0.00 0.00 67 1014.3
20260830190813 31 39 0.0 1.6 0.00 0.00 0.00 65 1014.5
20260830190312 31 35 0.0 1.6 0.00 0.00 0.00 63 1014.2
20260830185811 31 45 3.2 3.2 0.00 0.00 0.00 64 1014.4
20260830185306 30 36 3.2 3.2 0.00 0.00 0.00 64 1014.4
20260830184801 31 54 0.0 4.8 0.00 0.00 0.00 67 1014.6
20260830184300 30 47 0.0 1.6 0.00 0.00 0.00 68 1014.6
20260830183756 30 36 0.0 1.6 0.00 0.00 0.00 70 1014.7
20260830183255 30 41 1.6 3.2 0.00 0.00 0.00 69 1014.8
20260830182751 29 56 3.2 3.2 0.00 0.00 0.00 69 1015.0
20260830182247 30 44 1.6 1.6 0.00 0.00 0.00 70 1014.8
20260830181743 29 32 0.0 3.2 0.00 0.00 0.00 70 1014.9
20260830181238 28 47 0.0 1.6 0.00 0.00 0.00 73 1015.1
20260830180736 28 42 0.0 1.6 0.00 0.00 0.00 74 1014.9
20260830180231 29 43 1.6 1.6 0.00 0.00 0.00 74 1015.0
20260830175726 29 37 0.0 1.6 0.00 0.00 0.00 72 1015.2
20260830175221 29 42 0.0 1.6 0.00 0.00 0.00 73 1015.0
20260830174715 29 66 4.8 4.8 0.00 0.00 0.00 72 1015.3
20260830174211 28 25 1.6 1.6 0.00 0.00 0.00 74 1015.2
20260830173711 28 45 1.6 3.2 0.00 0.00 0.00 76 1015.5
20260830173206 28 68 3.2 3.2 0.00 0.00 0.00 76 1015.5
20260830172703 28 47 1.6 3.2 0.00 0.00 0.00 76 1015.5
20260830172200 28 45 0.0 1.6 0.00 0.00 0.00 76 1015.8
20260830171700 28 44 0.0 1.6 0.00 0.00 0.00 78 1015.9
20260830171154 28 45 0.0 1.6 0.00 0.00 0.00 77 1015.8
20260830170649 28 44 0.0 1.6 0.00 0.00 0.00 76 1016.0
20260830170149 28 46 1.6 1.6 0.00 0.00 0.00 76 1016.0
20260830165643 28 38 0.0 3.2 0.00 0.00 0.00 76 1016.2
20260830165139 28 41 0.0 1.6 0.00 0.00 0.00 78 1016.2
20260830164635 27 36 0.0 1.6 0.00 0.00 0.00 79 1016.3
20260830164131 27 42 0.0 1.6 0.00 0.00 0.00 79 1016.3
20260830163628 27 35 0.0 1.6 0.00 0.00 0.00 79 1016.4
20260830163127 27 38 0.0 3.2 0.00 0.00 0.00 80 1016.4
20260830162623 27 41 0.0 1.6 0.00 0.00 0.00 80 1016.6
20260830162119 27 43 1.6 3.2 0.00 0.00 0.00 80 1016.6
20260830161619 27 52 0.0 3.2 0.00 0.00 0.00 80 1016.7
20260830161113 27 47 1.6 1.6 0.00 0.00 0.00 80 1016.8
20260830160610 27 42 1.6 3.2 0.00 0.00 0.00 79 1016.8
20260830160104 27 43 1.6 3.2 0.00 0.00 0.00 80 1016.7
20260830155601 27 70 4.8 8.0 0.00 0.00 0.00 80 1016.6
20260830155056 27 46 1.6 3.2 0.00 0.00 0.00 81 1016.9
20260830154551 27 42 1.6 1.6 0.00 0.00 0.00 82 1016.8
20260830154047 27 43 0.0 3.2 0.00 0.00 0.00 81 1016.9
20260830153543 27 38 0.0 1.6 0.00 0.00 0.00 82 1016.7
20260830153043 27 39 0.0 1.6 0.00 0.00 0.00 82 1016.8
20260830152537 27 42 1.6 1.6 0.00 0.00 0.00 83 1016.8
20260830152037 26 41 0.0 1.6 0.00 0.00 0.00 84 1016.8
20260830151536 26 40 0.0 1.6 0.00 0.00 0.00 84 1017.0
20260830151031 26 41 0.0 1.6 0.00 0.00 0.00 84 1016.8
20260830150531 26 53 1.6 3.2 0.00 0.00 0.00 84 1016.8
20260830150025 26 37 0.0 1.6 0.00 0.00 0.00 84 1016.6
20260830145520 26 39 1.6 1.6 0.00 0.00 0.00 84 1016.8
20260830145015 26 41 0.0 0.0 0.00 0.00 0.00 85 1016.7
20260830144511 26 44 1.6 1.6 0.00 0.00 0.00 84 1016.6
20260830144007 26 42 1.6 3.2 0.00 0.00 0.00 85 1016.7
20260830143502 26 40 0.0 1.6 0.00 0.00 0.00 86 1016.5
20260830143000 26 44 1.6 1.6 0.00 0.00 0.00 86 1016.8
20260830142455 26 39 0.0 1.6 0.00 0.00 0.00 87 1016.7
20260830141950 25 42 0.0 0.0 0.00 0.00 0.00 87 1016.8
20260830141446 25 57 1.6 1.6 0.00 0.00 0.00 87 1016.6
20260830140941 25 52 1.6 1.6 0.00 0.00 0.00 87 1016.7
20260830140436 25 44 0.0 1.6 0.00 0.00 0.00 88 1016.8
20260830135934 25 32 0.0 0.0 0.00 0.00 0.00 89 1016.8
20260830135430 25 43 0.0 1.6 0.00 0.00 0.00 89 1017.0
20260830134926 25 44 0.0 1.6 0.00 0.00 0.00 91 1017.1
20260830134421 25 34 0.0 1.6 0.00 0.00 0.00 92 1016.9
20260830133917 25 42 0.0 1.6 0.00 0.00 0.00 94 1016.9
20260830133412 25 45 0.0 0.0 0.00 0.00 0.00 96 1016.9
20260830132907 25 41 0.0 0.0 0.00 0.00 0.00 96 1016.9
20260830132403 24 32 0.0 0.0 0.00 0.00 0.00 96 1016.7
20260830131902 24 31 0.0 0.0 0.00 0.00 0.00 96 1016.9
20260830131402 24 46 0.0 0.0 0.00 0.00 0.00 96 1017.0
20260830130857 24 43 0.0 1.6 0.00 0.00 0.00 97 1016.8
20260830130353 24 38 0.0 0.0 0.00 0.00 0.00 97 1016.7
20260830125851 23 36 0.0 0.0 0.00 0.00 0.00 97 1016.7
20260830125347 23 39 0.0 0.0 0.00 0.00 0.00 97 1016.8
20260830124844 23 42 1.6 3.2 0.00 0.00 0.00 97 1016.9
20260830124339 23 48 0.0 1.6 0.00 0.00 0.00 97 1016.8
20260830123836 23 49 0.0 1.6 0.00 0.00 0.00 97 1016.6
20260830123332 23 48 0.0 0.0 0.00 0.00 0.00 97 1016.8
20260830122830 23 48 0.0 0.0 0.00 0.00 0.00 97 1016.5
20260830122324 23 48 0.0 0.0 0.00 0.00 0.00 97 1016.5
20260830121820 23 48 0.0 1.6 0.00 0.00 0.00 97 1016.5
20260830121319 23 48 0.0 0.0 0.00 0.00 0.00 97 1016.5
20260830120814 23 48 0.0 0.0 0.00 0.00 0.00 97 1016.6